Location: Carri�res
(48.9069°N, 2.1792°E)
Time: 01:37:09
(UTC+00:00)

deb Kosmos- 1898 - Visible Passes

Search period start: 26 July 2021 00:00
Search period end: 05 August 2021 00:00
Orbit: 731 x 754 km, 74.0° (Epoch: 25 July)

Date Brightness Start Highest point End Pass type
(mag) Time Alt. Az. Time Alt. Az. Time Alt. Az.
26 Jul ? 01:39:01 10° ESE 01:41:07 13° E 01:43:15 10° ENE visible
26 Jul ? 03:16:41 10° SSW 03:21:47 85° ESE 03:26:58 10° NNE visible
27 Jul ? 02:32:43 11° S 02:37:18 46° ESE 02:42:12 10° NNE visible
28 Jul ? 01:49:13 11° SSE 01:52:58 25° E 01:57:05 10° NE visible
28 Jul ? 03:29:10 10° SW 03:34:09 52° WNW 03:39:13 10° NNE visible
29 Jul ? 01:06:31 10° ESE 01:08:47 13° E 01:11:05 10° ENE visible
29 Jul ? 02:45:25 16° SSW 02:49:28 88° ESE 02:54:40 10° NNE visible
30 Jul ? 02:01:51 21° S 02:04:58 47° ESE 02:09:55 10° NNE visible
30 Jul ? 03:42:15 10° WSW 03:46:43 29° NW 03:51:13 10° N visible
31 Jul ? 01:18:15 18° SE 01:20:37 25° E 01:24:49 10° NE visible
31 Jul ? 02:57:59 16° SW 03:01:51 50° WNW 03:06:53 10° NNE visible
01 Aug ? 00:34:37 11° ESE 00:36:27 14° E 00:38:54 10° ENE visible
01 Aug ? 02:14:21 28° SSW 02:17:10 90° ENE 02:22:22 10° NNE visible
02 Aug ? 01:30:42 32° SSE 01:32:39 49° ESE 01:37:37 10° NNE visible
02 Aug ? 03:10:26 12° WSW 03:14:25 29° NW 03:18:54 10° N visible
03 Aug ? 00:47:00 24° ESE 00:48:18 26° E 00:52:32 10° NE visible
03 Aug ? 02:26:45 24° SW 02:29:32 49° WNW 02:34:34 10° NNE visible
04 Aug ? 00:03:18 14° ESE 00:04:06 14° E 00:06:42 10° ENE visible
04 Aug ? 01:43:02 42° SSW 01:44:50 88° WNW 01:50:03 10° NNE visible
04 Aug ? 03:23:46 10° W 03:27:11 17° NW 03:30:37 10° N visible
